URO69A EDDV-EGHH

Flight info

Callsign URO69A
Flight time N/A
Altitude 38000
Route VAXEV2G/09R VAXEV Z718 OSN L980 RKN DCT GALSO Q63 IPKUS DCT UMBUR
Aircraft A346/H-SDE2E3FGHIJ3J4J5M1RWXY/LB1D1

Departure

Time N/A
Airport Hannover Airport (EDDV)

Arrival

Time 2026-05-08 21:14
Airport Bournemouth Airport (EGHH)
Time Latitude Longitude Altitude Speed Heading
2026-05-08 20:39 51.67934 2.33423 38139 ft 451 kts 265°
2026-05-08 20:40 51.67585 2.28279 38143 ft 451 kts 265°
2026-05-08 20:40 51.66896 2.18229 38144 ft 451 kts 265°
2026-05-08 20:41 51.66199 2.08183 38147 ft 451 kts 265°
2026-05-08 20:41 51.65491 1.98110 38148 ft 451 kts 265°
2026-05-08 20:42 51.64780 1.88088 38150 ft 449 kts 264°
2026-05-08 20:42 51.64063 1.78123 38147 ft 448 kts 264°
2026-05-08 20:43 51.63336 1.68151 38154 ft 447 kts 264°
2026-05-08 20:43 51.62602 1.58194 38154 ft 447 kts 264°
2026-05-08 20:44 51.61860 1.48240 38148 ft 447 kts 264°
2026-05-08 20:44 51.61112 1.38300 38150 ft 445 kts 264°
2026-05-08 20:44 51.60735 1.33355 37888 ft 445 kts 264°
2026-05-08 20:45 51.60356 1.28415 37193 ft 446 kts 264°
2026-05-08 20:45 51.60101 1.25111 36751 ft 446 kts 264°
2026-05-08 20:45 51.60029 1.24179 36624 ft 446 kts 264°
2026-05-08 20:45 51.59642 1.19186 35985 ft 446 kts 264°
2026-05-08 20:46 51.59253 1.14201 35296 ft 446 kts 264°
2026-05-08 20:46 51.58866 1.09252 34703 ft 445 kts 265°
2026-05-08 20:46 51.58477 1.04315 34091 ft 445 kts 265°
2026-05-08 20:46 51.58088 0.99370 33405 ft 445 kts 265°
2026-05-08 20:47 51.57699 0.94433 32742 ft 445 kts 264°
2026-05-08 20:47 51.57310 0.89497 32077 ft 444 kts 264°
2026-05-08 20:47 51.56914 0.84561 31424 ft 444 kts 263°
2026-05-08 20:47 51.56513 0.79602 30802 ft 444 kts 263°
2026-05-08 20:48 51.56004 0.74694 30168 ft 446 kts 257°
2026-05-08 20:48 51.55209 0.69866 29483 ft 449 kts 255°
2026-05-08 20:48 51.54344 0.65018 28773 ft 452 kts 255°
2026-05-08 20:48 51.53467 0.60151 28092 ft 454 kts 255°
2026-05-08 20:49 51.52590 0.55251 27428 ft 455 kts 254°
2026-05-08 20:49 51.51719 0.50354 26779 ft 453 kts 254°
2026-05-08 20:49 51.50860 0.45492 26162 ft 451 kts 254°
2026-05-08 20:49 51.50004 0.40634 25536 ft 448 kts 254°
2026-05-08 20:50 51.49160 0.35854 25187 ft 442 kts 254°
2026-05-08 20:50 51.48318 0.31099 25137 ft 443 kts 253°
2026-05-08 20:50 51.47474 0.26340 25144 ft 444 kts 253°
2026-05-08 20:50 51.46626 0.21568 25105 ft 444 kts 253°
2026-05-08 20:51 51.45769 0.16749 24659 ft 442 kts 253°
2026-05-08 20:51 51.44918 0.11974 24185 ft 438 kts 253°
2026-05-08 20:51 51.44082 0.07291 23710 ft 435 kts 253°
2026-05-08 20:51 51.43530 0.04208 23364 ft 434 kts 253°
2026-05-08 20:52 51.42703 -0.00408 23132 ft 432 kts 253°
2026-05-08 20:52 51.41870 -0.05047 22858 ft 432 kts 253°
2026-05-08 20:52 51.41035 -0.09683 22305 ft 428 kts 252°
2026-05-08 20:52 51.40210 -0.14244 21783 ft 423 kts 252°
2026-05-08 20:53 51.39392 -0.18756 21283 ft 419 kts 252°
2026-05-08 20:53 51.38578 -0.23231 20802 ft 417 kts 252°
2026-05-08 20:53 51.37768 -0.27677 20424 ft 415 kts 252°
2026-05-08 20:53 51.36951 -0.32144 20055 ft 414 kts 252°
2026-05-08 20:54 51.36143 -0.36561 19693 ft 412 kts 252°
2026-05-08 20:54 51.35337 -0.40953 19334 ft 410 kts 252°
2026-05-08 20:54 51.34534 -0.45319 18970 ft 408 kts 252°
2026-05-08 20:54 51.33731 -0.49671 18622 ft 406 kts 252°
2026-05-08 20:55 51.32928 -0.54006 18233 ft 405 kts 252°
2026-05-08 20:55 51.32128 -0.58319 17801 ft 403 kts 252°
2026-05-08 20:55 51.31329 -0.62620 17400 ft 400 kts 252°
2026-05-08 20:55 51.30536 -0.66882 17003 ft 398 kts 252°
2026-05-08 20:56 51.29744 -0.71131 16603 ft 396 kts 252°
2026-05-08 20:56 51.28959 -0.75332 16215 ft 393 kts 252°
2026-05-08 20:56 51.28175 -0.79514 15832 ft 391 kts 252°
2026-05-08 20:56 51.27393 -0.83682 15453 ft 389 kts 252°
2026-05-08 20:57 51.26616 -0.87808 15078 ft 387 kts 252°
2026-05-08 20:57 51.25937 -0.91412 14746 ft 384 kts 252°
2026-05-08 20:57 51.25177 -0.95434 14389 ft 378 kts 252°
2026-05-08 20:57 51.24423 -0.99421 14036 ft 371 kts 252°
2026-05-08 20:58 51.23676 -1.03364 13633 ft 366 kts 252°
2026-05-08 20:58 51.22943 -1.07223 13231 ft 360 kts 252°
2026-05-08 20:58 51.22220 -1.11019 12829 ft 355 kts 252°
2026-05-08 20:58 51.21506 -1.14753 12428 ft 350 kts 252°
2026-05-08 20:59 51.20802 -1.18433 12044 ft 345 kts 252°
2026-05-08 20:59 51.20096 -1.22064 11662 ft 340 kts 249°
2026-05-08 20:59 51.18936 -1.25258 11072 ft 328 kts 223°
2026-05-08 20:59 51.17044 -1.27053 10682 ft 310 kts 194°
2026-05-08 21:00 51.14966 -1.27531 10329 ft 295 kts 186°
2026-05-08 21:00 51.12960 -1.27883 10017 ft 287 kts 188°
2026-05-08 21:00 51.10981 -1.28383 9612 ft 285 kts 192°
2026-05-08 21:00 51.09123 -1.29452 9198 ft 284 kts 207°
2026-05-08 21:01 51.07393 -1.30971 8806 ft 283 kts 210°
2026-05-08 21:01 51.05690 -1.32570 8415 ft 283 kts 210°
2026-05-08 21:01 51.04007 -1.34173 8121 ft 278 kts 210°
2026-05-08 21:01 51.02372 -1.35736 8065 ft 273 kts 210°
2026-05-08 21:02 51.00729 -1.37308 7582 ft 278 kts 210°
2026-05-08 21:02 50.99065 -1.38902 7081 ft 282 kts 210°
2026-05-08 21:02 50.97367 -1.40532 6564 ft 284 kts 210°
2026-05-08 21:02 50.95674 -1.42166 6070 ft 286 kts 210°
2026-05-08 21:03 50.93987 -1.43817 5479 ft 281 kts 210°
2026-05-08 21:03 50.92347 -1.45434 4965 ft 275 kts 210°
2026-05-08 21:03 50.90744 -1.47023 4438 ft 269 kts 210°
2026-05-08 21:03 50.89178 -1.48606 3934 ft 265 kts 214°
2026-05-08 21:04 50.87968 -1.50777 3405 ft 265 kts 243°
2026-05-08 21:04 50.87351 -1.53524 3072 ft 266 kts 253°
2026-05-08 21:04 50.86895 -1.56377 3047 ft 268 kts 255°
2026-05-08 21:04 50.86463 -1.59276 3000 ft 268 kts 255°
2026-05-08 21:05 50.86086 -1.62190 2998 ft 269 kts 261°
2026-05-08 21:05 50.85907 -1.65145 3004 ft 269 kts 265°
2026-05-08 21:05 50.85785 -1.68122 2993 ft 269 kts 265°
2026-05-08 21:05 50.85672 -1.71087 2989 ft 269 kts 265°
2026-05-08 21:06 50.85558 -1.74052 2994 ft 269 kts 265°
2026-05-08 21:06 50.85442 -1.77013 3006 ft 269 kts 265°
2026-05-08 21:06 50.85319 -1.79981 2992 ft 269 kts 262°
2026-05-08 21:06 50.85003 -1.82894 3000 ft 268 kts 257°
2026-05-08 21:07 50.84597 -1.85783 2997 ft 268 kts 256°
2026-05-08 21:07 50.84174 -1.88659 2980 ft 268 kts 255°
2026-05-08 21:07 50.83751 -1.91539 2989 ft 268 kts 255°
2026-05-08 21:07 50.83330 -1.94415 2985 ft 268 kts 255°
2026-05-08 21:08 50.82907 -1.97300 2978 ft 268 kts 255°
2026-05-08 21:08 50.82488 -2.00173 2978 ft 268 kts 255°
2026-05-08 21:08 50.82067 -2.03054 2983 ft 268 kts 255°
2026-05-08 21:08 50.81643 -2.05946 2982 ft 268 kts 255°
2026-05-08 21:09 50.81179 -2.08800 2968 ft 267 kts 246°
2026-05-08 21:09 50.80133 -2.11160 2963 ft 262 kts 216°
2026-05-08 21:09 50.78528 -2.12389 2973 ft 257 kts 187°
2026-05-08 21:09 50.76779 -2.12206 2979 ft 253 kts 158°
2026-05-08 21:10 50.75345 -2.10682 2968 ft 248 kts 129°
2026-05-08 21:10 50.74446 -2.08481 2933 ft 227 kts 117°
2026-05-08 21:10 50.73777 -2.06282 2941 ft 221 kts 107°
2026-05-08 21:10 50.73764 -2.03904 2528 ft 222 kts 70°
2026-05-08 21:11 50.74603 -2.01873 1951 ft 220 kts 55°
2026-05-08 21:11 50.75427 -1.99926 1519 ft 205 kts 68°
2026-05-08 21:11 50.75826 -1.97917 1470 ft 179 kts 79°
2026-05-08 21:11 50.76072 -1.96089 1441 ft 164 kts 79°
2026-05-08 21:12 50.76331 -1.94372 1264 ft 159 kts 77°
2026-05-08 21:12 50.76608 -1.92701 1014 ft 154 kts 77°
2026-05-08 21:12 50.76873 -1.91071 790 ft 153 kts 76°
2026-05-08 21:12 50.77140 -1.89434 639 ft 154 kts 76°
2026-05-08 21:13 50.77415 -1.87796 428 ft 155 kts 76°
2026-05-08 21:13 50.77691 -1.86155 212 ft 153 kts 76°
2026-05-08 21:13 50.77960 -1.84546 50 ft 140 kts 75°
2026-05-08 21:13 50.78139 -1.83457 53 ft 62 kts 75°
2026-05-08 21:14 50.78197 -1.83108 51 ft 25 kts 75°
2026-05-08 21:14 50.78235 -1.82884 51 ft 12 kts 75°
2026-05-08 21:14 50.78231 -1.82782 52 ft 9 kts 130°
2026-05-08 21:14 50.78240 -1.82728 51 ft 6 kts 337°
2026-05-08 21:15 50.78245 -1.82816 48 ft 11 kts 256°
2026-05-08 21:15 50.78221 -1.82958 51 ft 15 kts 255°
2026-05-08 21:15 50.78192 -1.83138 50 ft 18 kts 255°
2026-05-08 21:15 50.78157 -1.83347 48 ft 21 kts 255°
2026-05-08 21:16 50.78116 -1.83594 49 ft 25 kts 255°
2026-05-08 21:16 50.78078 -1.83835 52 ft 18 kts 264°
2026-05-08 21:16 50.78162 -1.83940 47 ft 16 kts 345°
2026-05-08 21:16 50.78243 -1.83974 52 ft 10 kts 345°
2026-05-08 21:17 50.78325 -1.84006 51 ft 14 kts 346°
2026-05-08 21:17 50.78428 -1.84048 49 ft 17 kts 345°
2026-05-08 21:17 50.78555 -1.84101 54 ft 19 kts 345°
2026-05-08 21:17 50.78611 -1.84203 50 ft 8 kts 260°
2026-05-08 21:18 50.78607 -1.84235 52 ft 0 kts 256°
2026-05-08 21:18 50.78605 -1.84243 53 ft 0 kts 256°
2026-05-08 21:18 50.78605 -1.84244 53 ft 0 kts 256°